Overview Statistics Trail Chart Weather Telemetry Raw packets
 

This is the latest recevied weather packets stored in our database for station/object IW9CSJ-13. If no packets are shown the sender has not sent any weather packets the latest 10 day(s).

<< 1 2 3 4 5 >>
Time Temp. Humidity Pressure Rain* Wind** Luminosity Snow
1788361821 29.44° C 51% 1017.3 hPa 0 mm - - -
1788361521 29.44° C 52% 1017.3 hPa 0 mm - - -
1788359119 30° C 48% 1017.4 hPa 0 mm - - -
1788358820 30° C 47% 1017.3 hPa 0 mm - - -
1788358221 30° C 48% 1017.3 hPa 0 mm - - -
1788357921 30° C 48% 1017.3 hPa 0 mm - - -
1788356120 30.56° C 51% 1017.6 hPa 0 mm - - -
1788355521 30.56° C 52% 1017.7 hPa 0 mm - - -
1788354921 30.56° C 53% 1017.7 hPa 0 mm - - -
1788353420 31.11° C 52% 1018 hPa 0 mm - - -
1788353121 31.11° C 52% 1018 hPa 0 mm - - -
1788352521 31.11° C 53% 1018.1 hPa 0 mm - - -
1788350721 31.67° C 51% 1018.1 hPa 0 mm - - -
1788350120 31.67° C 52% 1018.4 hPa 0 mm - - -
1788349822 31.67° C 52% 1018.4 hPa 0 mm - - -
1788349221 31.67° C 52% 1018.3 hPa 0 mm - - -
1788348919 31.67° C 52% 1018.3 hPa 0 mm - - -
1788348620 31.67° C 52% 1018.3 hPa 0 mm - - -
1788348320 31.67° C 53% 1018.4 hPa 0 mm - - -
1788348021 31.67° C 52% 1018.5 hPa 0 mm - - -
1788347420 32.22° C 51% 1018.5 hPa 0 mm - - -
1788347120 31.67° C 53% 1018.5 hPa 0 mm - - -
1788346520 31.67° C 54% 1018.5 hPa 0 mm - - -
1788345320 31.67° C 53% 1018.7 hPa 0 mm - - -
1788344720 31.67° C 54% 1018.7 hPa 0 mm - - -

* Rain latest hour (hover to see other rain measurements)
** Current wind speed in m/s (hover to see current wind gust speed)